Wind_Speed
9 10 5 6 6 10 12 12 13 14 13 12 10 8 7 6 5 4 3 4 4 4 4 4 4 5 5 5 5 6 6 7 8 8 8 8 8 10 11 10 7 7 7
8 10 6 3 5 6 9 10 10 11 11 10 10 9 7 5 3 2 1 1 2 3 3 3 3 3 3 3 3 4 5 6 6 7 6 6 5 7 8 8 6 6 6
8 7 7 3 4 6 6 7 8 8 8 8 7 6 5 4 3 1 1 1 2 3 4 4 4 5 5 4 5 5 6 6 6 6 6 6 6 4 5 7 7 6 5
6 4 5 4 3 6 7 7 7 7 7 7 5 4 4 3 3 3 2 2 3 4 4 4 5 5 5 5 5 5 5 6 7 7 6 4 5 4 2 4 4 5 4
5 5 6 4 4 6 7 7 7 7 7 8 7 7 6 6 6 5 4 4 5 4 4 4 4 4 4 4 5 5 5 5 6 6 6 6 4 5 3 0 2 3 2
7 8 9 8 8 8 7 7 7 7 8 8 9 9 8 7 7 6 5 5 4 4 4 5 5 4 5 5 4 4 3 3 3 4 5 4 6 6 6 3 0 1 2
8 9 10 9 11 11 10 9 8 9 9 9 8 8 7 7 6 6 7 7 7 7 7 7 7 7 7 8 7 6 6 6 5 5 3 5 6 6 8 6 3 2 3
8 10 12 10 10 11 10 10 10 10 10 10 9 9 8 9 10 10 10 10 11 11 11 11 11 11 11 11 11 10 9 9 9 8 7 7 6 6 8 9 8 4 4
8 8 8 7 9 10 10 11 11 11 11 11 12 12 12 12 13 14 14 14 15 15 15 15 16 16 16 16 15 15 14 14 13 13 12 11 10 9 9 11 11 8 6
9 8 6 9 13 12 12 12 12 12 13 14 14 14 15 15 16 16 18 19 19 20 20 21 21 21 21 20 20 19 19 18 18 18 18 15 16 14 13 14 14 13 11
10 5 9 27 34 19 14 12 13 13 14 15 16 18 18 18 18 18 19 20 22 23 24 25 24 23 25 24 22 23 23 22 22 20 22 21 20 19 17 18 18 17 15
12 11 20 23 26 28 17 14 12 13 15 15 13 14 17 21 22 21 21 20 20 22 22 23 24 24 28 24 20 21 24 24 24 23 25 25 26 24 24 22 21 21 20
6 15 8 6 17 25 17 12 10 12 10 15 15 17 22 21 29 35 31 24 25 23 24 24 24 24 25 23 25 22 20 19 23 21 24 27 29 29 30 27 26 25 26
12 6 7 5 14 20 13 27 25 29 12 19 16 24 28 30 26 30 42 53 42 38 35 33 31 29 28 29 30 33 29 31 36 31 31 23 31 30 28 25 27 27 27
11 8 7 1 8 12 16 14 18 19 22 19 21 15 18 26 28 31 33 20 23 24 25 21 26 27 32 32 31 28 28 31 30 34 33 33 33 34 31 29 33 26 32
11 8 4 6 8 12 14 17 19 21 22 21 19 21 24 23 24 27 26 27 31 27 29 29 27 28 31 29 29 32 34 36 35 34 35 34 35 33 34 32 34 31 32
4 3 6 8 11 13 16 17 19 21 20 18 23 27 25 22 25 27 27 28 29 29 27 27 26 27 32 32 32 33 33 35 35 36 37 38 38 33 30 30 32 34 34
3 3 4 5 7 9 12 15 18 20 24 26 25 23 22 22 25 25 26 28 30 31 32 32 32 32 33 36 38 39 39 37 36 34 34 34 35 35 33 32 33 35 34
4 5 4 3 1 4 7 11 14 17 19 20 22 23 24 25 26 27 28 30 30 31 31 33 36 38 40 39 38 39 39 40 36 35 34 34 35 37 36 33 32 35 36
8 6 5 6 7 8 9 10 12 14 16 18 20 21 23 24 25 27 29 30 31 33 35 35 36 38 38 37 34 31 34 36 42 47 41 38 39 36 36 37 35 34 33
6 7 9 11 11 12 12 13 14 15 16 16 17 20 22 23 25 27 29 32 33 35 36 36 34 33 33 33 32 29 28 29 31 36 42 47 53 47 43 41 40 40 40
8 12 14 15 16 16 16 16 16 15 16 16 18 19 20 23 25 27 29 31 33 34 35 35 35 34 33 35 36 33 31 24 24 27 30 35 43 45 52 53 52 49 48
14 18 20 20 21 22 21 19 19 18 18 18 19 20 22 24 26 27 29 30 31 31 32 32 32 34 33 31 32 35 37 34 32 23 26 29 31 31 35 41 46 53 49
16 21 24 25 27 26 25 24 23 22 21 20 20 21 22 24 25 26 28 29 28 28 29 30 31 32 35 36 36 33 34 39 39 39 27 25 29 33 35 33 35 37 40
17 24 28 27 25 26 27 27 25 26 24 20 19 19 21 23 25 26 27 27 28 28 29 30 30 33 36 37 37 40 39 37 37 43 46 37 30 32 37 40 36 37 36
21 27 29 27 28 28 27 28 30 30 30 27 22 20 22 23 25 26 29 31 33 34 35 37 37 37 37 39 40 41 43 45 45 45 47 47 46 35 36 37 42 42 40
Wind_Direction
132 119 114 110 140 157 158 160 157 155 157 155 154 154 155 146 132 121 105 80 74 62 50 44 41 43 40 37 36 43 46 40 51 46 35 42 58 65 57 51 49 66 74
138 123 126 122 156 177 177 177 175 171 167 168 168 169 165 157 155 149 126 59 24 7 3 9 11 18 29 16 17 26 33 31 24 32 24 28 43 62 69 66 59 68 80
120 135 159 154 188 190 199 199 199 193 189 191 182 180 180 182 191 196 320 332 325 329 340 344 350 347 346 354 352 359 4 11 11 17 10 4 2 41 68 60 52 56 56
104 146 176 175 237 219 219 215 216 215 214 216 213 212 214 223 230 240 253 307 323 325 329 331 336 332 328 332 336 349 354 353 355 358 351 339 333 329 25 70 63 58 66
133 170 179 188 218 229 234 237 236 230 233 237 238 238 241 245 247 252 262 264 268 281 294 301 300 302 309 319 326 333 340 338 347 338 340 327 306 307 293 340 61 46 42
178 182 179 187 194 202 221 229 227 221 225 230 236 238 236 241 251 261 261 264 268 271 278 281 283 286 290 289 284 287 289 288 308 320 325 308 308 288 271 244 277 8 344
186 186 190 196 192 194 207 212 218 230 241 243 240 240 241 243 240 238 239 242 247 252 256 262 273 279 279 277 275 272 277 282 273 267 263 273 299 270 274 251 231 284 297
190 201 191 203 210 203 207 215 224 231 236 245 247 249 249 249 253 254 253 255 256 255 257 260 262 263 264 265 268 269 267 265 267 265 259 258 270 259 262 265 247 222 262
187 203 229 225 211 224 212 220 230 237 245 246 254 260 260 265 269 271 270 270 272 273 272 270 267 266 267 266 264 263 261 261 260 261 256 254 252 250 245 254 255 239 235
222 205 226 279 260 242 234 233 242 254 264 273 279 284 288 291 293 293 294 291 286 286 284 280 278 275 270 266 264 263 261 260 258 261 262 254 252 245 243 243 251 246 235
221 142 32 291 265 260 258 265 277 282 286 291 300 301 298 291 288 285 285 288 288 289 286 283 281 281 277 268 264 264 261 258 258 259 263 264 259 254 246 243 241 244 240
232 239 315 289 268 252 265 258 272 285 284 283 291 293 297 296 290 282 281 284 286 288 286 284 281 280 274 265 268 272 271 266 263 260 261 262 264 257 250 247 245 243 241
274 312 333 310 221 233 249 258 278 266 287 297 296 302 304 298 298 296 292 286 294 291 291 292 286 279 283 289 296 294 274 275 272 266 269 266 260 261 255 248 247 244 242
301 317 342 16 208 231 235 252 256 277 286 278 288 288 280 285 298 289 275 273 280 286 295 287 276 287 277 284 284 272 280 278 277 278 283 276 273 265 263 267 249 251 249
306 309 330 255 197 228 235 257 262 274 283 284 286 264 282 294 298 300 304 306 292 293 297 300 295 299 291 283 279 288 278 275 275 279 271 270 276 272 268 262 242 267 243
296 300 285 230 257 294 289 287 285 282 278 281 279 280 287 288 284 295 297 294 294 294 288 284 277 283 291 287 282 276 274 274 273 270 271 270 268 270 264 256 258 266 253
283 270 220 226 280 290 286 282 285 284 283 279 275 283 289 286 288 290 298 300 295 294 293 292 290 290 283 288 291 288 278 272 270 269 266 267 270 263 257 260 255 257 259
194 205 232 251 270 284 296 294 290 286 281 284 283 288 289 289 293 297 296 293 290 289 290 289 288 292 291 288 285 283 280 279 274 269 266 265 265 263 257 257 260 258 257
108 113 116 115 41 320 303 295 288 287 290 293 293 291 290 291 295 296 296 295 294 295 294 293 294 294 294 292 287 282 278 269 267 268 267 263 259 259 257 253 251 256 258
103 83 48 30 4 344 336 333 322 312 306 301 296 294 293 293 292 292 293 294 295 297 297 297 296 298 296 295 292 289 281 276 269 265 264 261 258 254 255 252 247 245 250
81 46 23 5 358 350 344 337 326 319 312 303 295 291 290 291 293 296 298 299 301 303 302 302 302 301 299 296 292 290 292 288 280 272 268 265 259 257 253 252 252 250 247
34 10 2 356 352 349 346 337 332 325 315 307 298 294 294 293 293 292 293 295 299 302 305 304 304 303 306 306 304 301 291 281 283 285 280 271 267 265 261 261 259 258 255
5 359 355 353 352 347 343 345 338 332 322 310 303 299 295 296 299 301 304 306 307 305 304 301 301 302 303 305 307 308 306 297 287 271 274 276 273 269 266 264 261 258 261
345 355 353 348 344 341 341 338 339 336 327 317 308 305 305 303 303 305 305 306 306 307 307 305 301 300 299 299 300 300 300 301 300 290 271 262 264 264 262 262 261 258 256
326 348 348 343 338 335 332 335 338 334 329 324 321 316 315 313 312 312 311 311 313 312 311 306 303 301 299 297 295 295 294 292 292 292 289 278 266 265 262 256 254 258 248
343 346 342 337 330 331 333 334 336 333 330 330 327 318 319 320 318 318 317 318 317 315 312 309 307 303 298 295 293 291 290 291 291 288 285 284 280 264 261 259 252 250 251
Height
3181 3181 3184 3184 3186 3187 3188 3189 3189 3189 3189 3189 3189 3189 3190 3190 3190 3190 3190 3190 3189 3189 3188 3187 3186 3184 3183 3182 3182 3182 3181 3181 3181 3181 3181 3180 3180 3179 3178 3178 3178 3176 3175
3181 3181 3184 3185 3188 3189 3190 3191 3191 3191 3191 3191 3190 3190 3190 3190 3191 3191 3190 3190 3190 3190 3190 3188 3187 3185 3184 3184 3183 3182 3182 3182 3182 3182 3182 3181 3181 3181 3180 3180 3179 3178 3178
3181 3182 3185 3188 3189 3190 3192 3193 3193 3193 3193 3193 3193 3192 3192 3191 3191 3192 3192 3193 3192 3191 3190 3189 3188 3187 3185 3184 3184 3183 3183 3181 3182 3181 3181 3182 3181 3180 3179 3179 3179 3178 3178
3183 3185 3187 3189 3190 3191 3192 3193 3194 3194 3194 3195 3195 3196 3195 3195 3194 3193 3193 3193 3193 3193 3192 3191 3190 3188 3187 3186 3185 3184 3183 3182 3182 3182 3182 3182 3182 3181 3181 3180 3180 3179 3179
3184 3185 3187 3189 3191 3192 3193 3194 3194 3195 3195 3196 3196 3195 3195 3194 3193 3193 3193 3192 3192 3192 3191 3191 3190 3188 3187 3186 3185 3184 3184 3183 3182 3182 3182 3182 3181 3181 3180 3180 3180 3180 3181
3183 3184 3185 3187 3188 3190 3192 3193 3193 3194 3195 3195 3194 3193 3193 3193 3193 3193 3192 3192 3191 3190 3190 3191 3190 3189 3187 3185 3184 3182 3181 3181 3181 3181 3180 3180 3180 3180 3180 3180 3180 3180 3180
3183 3183 3185 3186 3186 3187 3189 3191 3192 3193 3193 3194 3193 3193 3192 3192 3192 3191 3190 3190 3189 3189 3188 3188 3189 3188 3187 3185 3183 3182 3180 3180 3179 3178 3178 3178 3178 3178 3179 3178 3178 3178 3179
3183 3184 3184 3186 3188 3187 3188 3189 3190 3191 3192 3192 3193 3192 3192 3191 3190 3190 3189 3189 3188 3186 3185 3185 3185 3185 3184 3183 3181 3180 3179 3178 3177 3177 3176 3176 3176 3177 3177 3178 3177 3176 3178
3181 3184 3186 3187 3187 3189 3188 3189 3189 3190 3191 3190 3191 3190 3189 3188 3188 3188 3187 3186 3186 3185 3183 3183 3182 3182 3182 3181 3179 3177 3176 3175 3175 3174 3174 3175 3175 3175 3175 3176 3176 3176 3176
3181 3184 3186 3188 3187 3187 3187 3187 3188 3189 3191 3191 3190 3190 3189 3188 3187 3187 3186 3185 3184 3184 3182 3180 3179 3179 3179 3178 3177 3175 3174 3173 3172 3171 3170 3172 3172 3172 3172 3173 3174 3174 3174
3183 3186 3187 3187 3184 3186 3186 3188 3189 3189 3190 3190 3190 3189 3188 3186 3185 3183 3181 3181 3180 3180 3180 3177 3176 3175 3175 3174 3173 3171 3170 3169 3168 3168 3167 3167 3168 3169 3169 3169 3170 3171 3171
3182 3186 3187 3180 3181 3183 3184 3184 3185 3186 3187 3186 3185 3184 3184 3184 3182 3179 3177 3176 3175 3174 3174 3172 3171 3169 3166 3161 3164 3166 3166 3166 3165 3164 3163 3163 3162 3163 3165 3166 3167 3167 3168
3182 3185 3181 3178 3176 3178 3180 3181 3180 3181 3183 3183 3180 3180 3181 3180 3179 3178 3175 3171 3168 3167 3168 3166 3164 3162 3162 3160 3152 3154 3156 3156 3161 3160 3160 3158 3157 3157 3158 3160 3163 3164 3164
3184 3181 3179 3177 3176 3180 3181 3182 3182 3179 3180 3181 3180 3179 3177 3175 3174 3170 3167 3166 3163 3162 3161 3159 3160 3158 3157 3157 3155 3155 3154 3155 3155 3155 3154 3151 3153 3153 3153 3153 3155 3156 3159
3179 3179 3178 3175 3176 3177 3178 3177 3176 3176 3176 3175 3175 3173 3171 3168 3166 3164 3160 3156 3158 3157 3157 3152 3153 3153 3151 3150 3148 3147 3148 3148 3148 3149 3149 3147 3147 3148 3148 3149 3148 3150 3151
3178 3176 3175 3174 3174 3175 3175 3175 3175 3174 3173 3172 3171 3170 3168 3164 3161 3158 3155 3154 3153 3152 3149 3148 3147 3146 3146 3144 3142 3141 3141 3141 3140 3140 3140 3141 3140 3140 3140 3142 3143 3141 3142
3175 3174 3173 3175 3174 3174 3174 3173 3172 3170 3169 3168 3166 3164 3162 3160 3157 3153 3150 3148 3146 3144 3142 3140 3139 3138 3139 3138 3136 3135 3133 3131 3131 3130 3131 3132 3132 3132 3133 3134 3135 3135 3135
3172 3173 3173 3173 3173 3173 3172 3171 3169 3168 3166 3164 3161 3159 3156 3154 3151 3148 3145 3143 3141 3139 3137 3135 3133 3132 3130 3128 3128 3126 3125 3124 3122 3120 3121 3122 3123 3123 3125 3126 3127 3127 3127
3172 3173 3173 3173 3172 3172 3171 3169 3167 3165 3162 3159 3156 3153 3151 3148 3145 3142 3139 3137 3135 3133 3130 3128 3125 3123 3121 3120 3119 3117 3116 3115 3114 3113 3113 3112 3112 3114 3115 3117 3118 3119 3120
3174 3173 3173 3172 3171 3170 3168 3165 3163 3160 3157 3154 3150 3148 3145 3143 3140 3137 3135 3132 3129 3127 3124 3122 3120 3115 3111 3110 3109 3108 3106 3105 3105 3105 3105 3104 3104 3103 3105 3107 3107 3110 3110
3174 3173 3172 3171 3169 3167 3164 3162 3159 3156 3153 3150 3146 3143 3140 3138 3135 3133 3130 3127 3124 3121 3118 3115 3112 3109 3105 3102 3100 3100 3097 3095 3093 3092 3091 3091 3093 3093 3094 3094 3096 3098 3099
3173 3172 3170 3168 3165 3163 3160 3159 3156 3151 3148 3145 3142 3140 3137 3134 3131 3129 3127 3124 3120 3117 3113 3109 3106 3103 3100 3094 3090 3089 3089 3091 3088 3084 3081 3079 3079 3080 3081 3083 3084 3085 3087
3170 3168 3166 3164 3161 3158 3156 3153 3150 3146 3143 3140 3137 3135 3132 3129 3127 3124 3121 3118 3115 3111 3108 3104 3101 3097 3094 3091 3086 3083 3078 3078 3077 3079 3075 3072 3070 3068 3069 3069 3070 3072 3073
3169 3165 3162 3159 3155 3153 3150 3148 3145 3141 3139 3136 3133 3131 3128 3125 3122 3119 3116 3113 3110 3106 3103 3099 3095 3092 3088 3086 3083 3080 3076 3069 3066 3063 3069 3067 3063 3061 3060 3059 3060 3060 3060
3167 3162 3158 3155 3152 3149 3146 3143 3140 3136 3133 3130 3127 3124 3122 3119 3115 3113 3110 3107 3104 3101 3098 3094 3092 3088 3083 3080 3076 3072 3069 3066 3062 3054 3049 3055 3059 3056 3053 3051 3051 3050 3051
3161 3158 3156 3152 3149 3146 3143 3138 3135 3131 3128 3125 3123 3120 3117 3114 3111 3108 3104 3100 3097 3094 3090 3087 3084 3081 3077 3073 3070 3066 3060 3056 3053 3048 3042 3040 3040 3047 3044 3043 3041 3041 3041